ONEWEB-0288 (49078 NORAD) Tracking and Keplerian Element Data

This shows tracking and keplerian element data for the satellite.

Feedback or suggestion? Click here.




ElementValue
Catalog49078
NameONEWEB-0288
Epoch Orbit362
Epoch Day261.91667824
Epoch Year2021
RAAN356.5033
Inclination87.4521
Eccentricity0.0019414
Argument of Perigee198.1953
Mean Anonmoly314.4073
Mean Motion15.20189727
Decay Rate-0.00977079
L11 49078U 21075D 21261.91667824 -.00977079 00000-0 -48661-1 0 9995
L22 49078 87.4521 356.5033 0019414 198.1953 314.4073 15.20189727 3622

Live tracking and technical data element details for ONEWEB-0288 (NORAD 49078). ONEWEB-0288 can be tracked NOW for your location showing map with azimuth and elevation plus other details from your city location.

Track the satellite on the map from your city or location and see movement details for azimuth, elevation, latitude, longitude, range, height, and movement on the map or in text.







IsCatalogInMostPopularTable: catalog: 49078, numindb: 7
Update: records affected: 1



GetName: 49078 ONEWEB-0288

Hit Count: updated at: Fri, 24 Sep 2021 19:04:07 GMT